Location: Bothwell
(42.3833°S, 147.0000°E)
Time: 20:28:55
(UTC+11:00)

OBJECT D - Visible Passes

Search period start: 13 November 2025 00:00
Search period end: 23 November 2025 00:00
Orbit: 436 x 584 km, 63.5° (Epoch: 12 November)

Date Brightness Start Highest point End Pass type
(mag) Time Alt. Az. Time Alt. Az. Time Alt. Az.
15 Nov ? 05:06:11 10° N 05:09:39 25° ENE 05:13:03 10° ESE visible
16 Nov ? 04:48:40 10° N 04:52:08 25° ENE 04:55:31 10° ESE visible
17 Nov ? 04:31:08 10° N 04:34:36 25° ENE 04:37:59 10° ESE visible
18 Nov ? 04:13:36 10° N 04:17:03 24° ENE 04:20:25 10° ESE visible
19 Nov ? 03:56:24 12° NNE 03:59:29 24° ENE 04:02:51 10° ESE visible
20 Nov ? 03:39:36 16° NNE 03:41:55 24° ENE 03:45:17 10° ESE visible
21 Nov ? 03:22:44 19° NNE 03:24:21 24° ENE 03:27:42 10° ESE visible
21 Nov ? 04:57:57 10° WNW 05:01:52 37° SW 05:05:41 10° SSE visible
22 Nov ? 03:05:47 22° NE 03:06:44 24° ENE 03:10:06 10° ESE visible
22 Nov ? 04:40:40 12° WNW 04:44:16 37° SW 04:48:05 10° SSE visible
